Location: Clarion
(42.7316°N, 93.7330°W)
Time: 09:48:16
(UTC+00:00)

Cosmos 2369 Rocket - Pass Details

Date: 22 April 2026
Orbit: 829 x 850 km, 71.0° (Epoch: 17 May)

Event Time Altitude Azimuth Distance (km) Brightness Sun altitude
Rises 03:07:36 0° 336° (NNW) 3,380 6.5 -20.6°
Reaches altitude 10° 03:10:03 10° 338° (NNW) 2,442 5.5 -20.9°
Maximum altitude 03:15:39 75° 64° (ENE) 860 2.1 -21.7°
Enters shadow 03:17:14 48° 137° (SE) 1,076 2.3 -21.9°
